Location: Fernhill
(41.0167°S, 175.6333°E)
Time: 00:10:42
(UTC+00:00)

Cosmos 1898 Rocket - Pass Details

Date: 08 November 2025
Orbit: 750 x 778 km, 74.0° (Epoch: 04 December)

Event Time Altitude Azimuth Distance (km) Brightness Sun altitude
Rises 10:17:31 0° 193° (SSW) 3,299 7.9 -27.5°
Reaches altitude 10° 10:20:07 10° 184° (S) 2,363 6.8 -27.7°
Enters shadow 10:24:49 37° 123° (ESE) 1,217 4.5 -28.1°
